Regional Weather Roundup
Issued by NWS

Home | Current Version | Previous Version | Text Only | Print | Product List | Glossary On
Versions: 1 2 3 4 5 6 7 8 9 10 11 12 13 14 15 16 17 18 19 20 21 22 23 24 25 26 27
000
ASUS44 KJAN 290210
RWRMS

MISSISSIPPI HOURLY WEATHER ROUNDUP
NATIONAL WEATHER SERVICE JACKSON MS
900 PM CDT TUE MAR 28 2017

NOTE: "FAIR: INDICATES FEW OR NO CLOUDS BELOW 12,000 FEET WITH NO
SIGNIFICANT WEATHER AND/OR OBSTRUCTIONS TO VISIBILITY.

MSZ001>002-007>008-010>013-018>021-025>028-034>036-290300-
NORTHWEST MISSISSIPPI

CITY           SKY/WX    TMP DP  RH WIND       PRES   REMARKS
BATESVILLE     FAIR      69  60  73 CALM      29.94R
CLEVELAND      FAIR      74  66  76 E6        29.90R
GREENWOOD      CLEAR     71  65  81 CALM      29.91R
GREENVILLE     CLEAR     73  62  68 E7        29.88R
OXFORD         FAIR      68  57  68 E7        29.96S
TUNICA         CLEAR     66  57  72 N7        29.94R
WINONA         FAIR      68  65  92 CALM      29.92S
$$

MSZ003>006-009-014>017-022>024-029>033-037>039-290300-
NORTHEAST MISSISSIPPI

CITY           SKY/WX    TMP DP  RH WIND       PRES   REMARKS
COLUMBUS AFB   CLEAR     73  62  68 E8        29.93S
CORINTH        FAIR      66  55  68 CALM      29.97R
GOLDN TRIANGLE PTCLDY    72  61  68 E7        29.90R
STARKVILLE     MOCLDY    72  63  73 CALM      29.95S
TUPELO         CLEAR     71  57  61 NE6       29.95S
$$

MSZ040-058-290300-
CENTRAL MISSISSIPPI

CITY           SKY/WX    TMP DP  RH WIND       PRES   REMARKS
JACKSON INTL   CLEAR     69  64  84 SE3       29.90S
JACKSON HAWKNS CLEAR     74  63  68 SE5       29.91S
MADISON        FAIR      68  64  88 CALM      29.91S
MERIDIAN KEY   CLEAR     69  67  93 CALM      29.95R
MERIDIAN NAS   CLEAR     72  61  68 E3        29.95R
RAYMOND        FAIR      68  66  94 CALM      29.90S
VICKSBURG VKS  PTCLDY    73  64  73 SE5       29.86S
$$

MSZ059>079-290300-
SOUTH MISSISSIPPI

CITY           SKY/WX    TMP DP  RH WIND       PRES   REMARKS
BROOKHAVEN     FAIR      73  64  73 S8        29.94S
HATTIESBURG    CLEAR     73  62  68 S7        29.97R
MCCOMB         CLEAR     72  63  73 S10       29.93S
NATCHEZ        NOT AVBL
PINE BELT      CLEAR     72  61  68 S8        29.96S
$$

MSZ080>082-290300-
COASTAL MISSISSIPPI

CITY           SKY/WX    TMP DP  RH WIND       PRES   REMARKS
BAY ST LOUIS   CLEAR     70  64  83 CALM      29.97S
BILOXI         MOCLDY    74  69  84 S13       29.97S
PASCAGOULA     CLEAR     72  66  81 S5        29.99R
GULFPORT       PTCLDY    74  69  85 S10       29.97R
$$

LAZ007>009-015>016-023>026-290300-
NORTHEAST LOUISIANA

CITY           SKY/WX    TMP DP  RH WIND       PRES   REMARKS
BASTROP        FAIR      72  67  85 CALM      29.87R
TALLULAH/VBURG PTCLDY    72  66  81 SE5       29.88S
VIDALIA        FAIR      76  64  65 SE12      29.88R
$$




USA.gov is the U.S. government's official web portal to all federal, state and local government web resources and services.